EA1GLE Weather Reports


time (UTC)temp
C
wind
direction
speed
KPH
gust
KPH
rain 1hr
cm
rain 24hr
cm
rain mn
cm
humidity
%
barometer
mb
20260504000003 8 0 0.0 0.0 0.00 0.97 0.00 99 1014.7
20260503234503 8 47 1.6 4.8 0.00 0.97 0.00 99 1014.8
20260503233603 8 47 3.2 4.8 0.00 0.97 0.00 99 1014.8
20260503232703 8 61 1.6 4.8 0.00 0.97 0.00 99 1014.6
20260503231803 8 63 1.6 3.2 0.00 0.97 0.00 99 1014.9
20260503230903 7 63 1.6 4.8 0.00 0.97 0.00 99 1014.7
20260503225403 8 0 0.0 0.0 0.00 0.97 0.00 99 1014.6
20260503224503 8 48 1.6 4.8 0.00 0.97 0.00 99 1014.8
20260503223817 8 47 3.2 4.8 0.00 0.97 0.00 99 1014.9
20260503222918 8 46 1.6 3.2 0.00 0.97 0.00 99 1014.7
20260503221803 8 44 0.0 1.6 0.00 0.97 0.00 99 1014.9
20260503220903 9 36 1.6 3.2 0.00 0.97 0.00 99 1015.0
20260503220003 9 31 0.0 3.2 0.00 0.97 0.00 99 1014.7
20260503215618 9 0 0.0 0.0 0.00 0.97 0.97 99 1014.9
20260503214503 9 51 1.6 4.8 0.00 0.97 0.97 99 1014.9
20260503213603 9 50 0.0 3.2 0.00 0.97 0.97 99 1014.9
20260503212703 9 0 0.0 0.0 0.00 0.97 0.97 99 1015.0
20260503210903 10 0 0.0 0.0 0.00 0.97 0.97 99 1014.7
20260503204503 10 56 1.6 3.2 0.00 0.97 0.97 99 1014.4
20260503203603 10 51 0.0 4.8 0.00 0.97 0.97 99 1014.5
20260503202703 10 71 0.0 1.6 0.00 0.97 0.97 99 1014.4
20260503202017 10 0 0.0 0.0 0.00 0.97 0.97 99 1014.0
20260503200903 10 31 1.6 4.8 0.03 0.97 0.97 99 1013.8
20260503200003 10 70 0.0 1.6 0.03 0.97 0.97 98 1013.9
20260503195403 10 48 1.6 6.4 0.03 0.97 0.97 98 1013.8
20260503194503 11 43 4.8 9.7 0.03 0.97 0.97 98 1013.7
20260503193603 11 58 3.2 9.7 0.18 0.97 0.97 98 1013.7
20260503192703 11 63 0.0 3.2 0.33 0.97 0.97 97 1013.6
20260503192017 11 61 1.6 6.4 0.33 0.97 0.97 97 1013.8
20260503190903 11 81 0.0 3.2 0.30 0.94 0.94 96 1013.7
20260503190003 11 97 0.0 3.2 0.33 0.94 0.94 94 1013.4
20260503185403 11 128 0.0 4.8 0.33 0.94 0.94 93 1013.4
20260503184503 11 169 3.2 6.4 0.33 0.94 0.94 91 1013.5
20260503182704 13 167 1.6 4.8 0.05 0.64 0.64 89 1013.4
20260503180903 13 158 1.6 4.8 0.05 0.69 0.64 88 1013.2
20260503180217 13 113 0.0 3.2 0.03 0.66 0.61 88 1013.1
20260503175403 13 135 1.6 4.8 0.03 0.66 0.61 88 1013.1
20260503174503 13 140 3.2 9.7 0.03 0.66 0.61 87 1013.0
20260503173603 13 133 3.2 4.8 0.00 0.64 0.58 83 1013.1
20260503172703 14 118 1.6 4.8 0.00 0.64 0.58 85 1013.0
20260503171803 14 99 1.6 11.3 0.00 0.64 0.58 87 1012.9
20260503171117 13 78 1.6 11.3 0.00 0.64 0.58 87 1013.1
20260503150903 15 190 8.0 14.5 0.00 0.81 0.33 74 1013.3
20260503131118 15 253 6.4 9.7 0.00 0.84 0.33 72 1014.0
20260503072703 11 0 0.0 0.0 0.00 1.65 0.00 99 1015.5
20260503071803 11 0 0.0 0.0 0.00 1.65 0.00 99 1015.5
20260503060217 8 0 0.0 0.0 0.00 1.65 0.00 99 1015.8
20260503054504 8 0 0.0 0.0 0.00 1.65 0.00 99 1015.8
20260503053603 8 50 0.0 3.2 0.00 1.65 0.00 99 1015.8
20260503051803 8 0 0.0 0.0 0.00 1.65 0.00 99 1015.8
20260503050903 8 30 0.0 1.6 0.00 1.65 0.00 99 1015.8
20260503050004 8 0 0.0 0.0 0.00 1.65 0.00 99 1015.6
20260503045403 8 0 0.0 0.0 0.00 1.65 0.00 99 1015.6
20260503044504 8 0 0.0 0.0 0.00 1.65 0.00 99 1015.6
20260503042703 9 0 0.0 0.0 0.00 1.65 0.00 99 1015.9
20260503041803 9 0 0.0 0.0 0.00 1.65 0.00 99 1015.9
20260503041117 9 0 0.0 0.0 0.00 1.65 0.00 99 1015.9
20260503040003 9 0 0.0 0.0 0.00 1.65 0.00 99 1015.6
20260503035618 9 0 0.0 0.0 0.00 1.65 0.00 99 1015.9
20260503034503 9 0 0.0 0.0 0.00 1.65 0.00 99 1015.8
20260503032918 9 0 0.0 0.0 0.00 1.65 0.00 99 1016.0
20260503031803 9 0 0.0 0.0 0.00 1.65 0.00 99 1016.0
20260503030903 9 0 0.0 0.0 0.00 1.65 0.00 99 1015.9
20260503030003 8 0 0.0 0.0 0.00 1.65 0.00 99 1016.0
20260503025403 9 0 0.0 0.0 0.00 1.65 0.00 99 1016.0
20260503023603 8 0 0.0 0.0 0.00 1.65 0.00 99 1015.8
20260503022703 8 95 0.0 1.6 0.00 1.65 0.00 99 1016.1
20260503021803 9 61 0.0 3.2 0.00 1.65 0.00 99 1016.1
20260503020903 9 48 0.0 3.2 0.00 1.65 0.00 99 1016.1
20260503020003 9 53 0.0 3.2 0.00 1.65 0.00 99 1016.3
20260503013603 10 0 0.0 0.0 0.00 1.65 0.00 99 1016.2
20260503012703 9 0 0.0 0.0 0.00 1.65 0.00 99 1016.5
20260503011803 9 37 0.0 3.2 0.00 1.65 0.00 99 1016.3
20260503010903 9 345 0.0 1.6 0.00 1.65 0.00 99 1016.6
20260503010003 9 43 0.0 3.2 0.00 1.65 0.00 99 1016.5
20260503004503 9 0 0.0 0.0 0.00 1.65 0.00 99 1016.7
20260503003603 9 55 0.0 3.2 0.00 1.65 0.00 99 1016.8
20260503002703 9 268 0.0 3.2 0.00 1.65 0.00 99 1016.9
20260503002018 9 42 0.0 1.6 0.00 1.65 0.00 99 1016.7
20260503001118 9 0 0.0 0.0 0.00 1.65 0.00 99 1016.9